sat.trackr.live / text

‹ back to catalog

STARLINK-32015

NORAD 60111 · 2024-117W

PAYLOAD ACTIVE UNKNOWN

§ Identity

Operator
Country
US
Launch date
2024-06-23
Launch site
AFETR
Launch vehicle
Mass (kg)
RCS (m²)

Purposes: comms

External: N2YO · Heavens-Above · Gunter

§ Orbital elements

Epoch: 2026-05-25T02:58:43.842720Z

Period
94.11 min
Inclination
53.1611°
Eccentricity
0.0001249
Mean motion
15.30193171 rev/d
Perigee alt
474.4 km
Apogee alt
476.1 km
Semi-major
6,853.4 km
B*
5.7457e-5
RAAN
41.7547°
Arg perigee
76.8769°
Mean anomaly
283.2371°
Rev number
10,859

§ Raw data

STARLINK-320151 60111U 24117W   26145.12411855  .00001343  00000+0  57457-4 0  99912 60111  53.1611  41.7547 0001249  76.8769 283.2371 15.30193171108595

JSON: /api/v1/satellites/60111 · /tle

For live sub-satellite position, see the globe view (requires WebGL).

§ Visibility from observer

Set your observer location to see the next 7 days of passes ≥ 10°. The values pass through the URL so the page stays shareable.

No JS? Fill the form by hand. The geolocation button needs JavaScript.